Location: Unspecified
(29.9680°N, 0.0000°E)
Time: 15:20:06
(UTC+00:00)

A-11 Canister half - Pass Details

Date: 19 June 2019
Orbit: 1526 x 1683 km, 47.3° (Epoch: 21 August)

Event Time Altitude Azimuth Distance (km) Brightness Sun altitude
Rises 03:43:57 0° 218° (SW) 4,784 - -14.5°
Reaches altitude 10° 03:47:06 10° 215° (SW) 3,780 - -13.9°
Exits shadow 03:48:18 15° 214° (SSW) 3,402 10.2 -13.7°
Maximum altitude 03:56:32 67° 135° (SE) 1,654 9.2 -12.3°
Drops below altitude 10° 04:05:45 10° 55° (NE) 3,700 12.6 -10.7°
Sets 04:08:47 0° 53° (NE) 4,679 13.9 -10.1°
